Location: Callanans Corners
(42.5326°N, 73.8846°W)
Time: 17:27:55
(UTC+00:00)

Okean O Rocket - Pass Details

Date: 06 October 2022
Orbit: 621 x 644 km, 98.2° (Epoch: 05 December)

Event Time Altitude Azimuth Distance (km) Brightness Sun altitude
Rises 23:37:28 0° 157° (SSE) 2,894 4.7 -13.6°
Reaches altitude 10° 23:39:39 10° 154° (SSE) 1,995 3.9 -14.0°
Maximum altitude 23:43:56 63° 74° (ENE) 704 1.5 -14.8°
Drops below altitude 10° 23:48:17 10° 353° (N) 2,024 4.4 -15.6°
Sets 23:50:31 0° 351° (N) 2,941 5.3 -16.0°
